Location: Ridgway Nature & Science Center
(38.1460°N, 107.7553°W)
Time: 14:25:04
(UTC-07:00)

Hubble Space Telescope - Pass Details

Date: 30 October 2021
Orbit: 534 x 538 km, 28.5° (Epoch: 06 December)

Event Time Altitude Azimuth Distance (km) Brightness Sun altitude
Rises 18:36:42 0° 216° (SW) 2,653 5.2 -5.2°
Reaches altitude 10° 18:40:19 10° 183° (S) 1,765 3.6 -5.9°
Maximum altitude 18:41:47 12° 162° (SSE) 1,661 3.2 -6.2°
Drops below altitude 10° 18:43:14 10° 141° (SE) 1,766 3.2 -6.5°
Enters shadow 18:45:53 - 115° (ESE) 2,364 3.6 -7.0°
